Preview of NWS' New Version of Forecast
This preview is not operational and should not be used for support decisions.

Regional Weather Roundup (RWR)

Issued by National Weather Service (NWS)

                            
000
ASUS45 KBOI 211610
RWRID 

IDAHO REGIONAL WEATHER ROUNDUP
NATIONAL WEATHER SERVICE BOISE ID
1000 AM MDT SUN APR 21 2019

NOTE: "FAIR" INDICATES FEW OR NO CLOUDS BELOW 12000 FEET
WITH NO SIGNIFICANT WEATHER AND/OR OBSTRUCTIONS TO VISIBILITY

IDZ012-014-211700-
SOUTHWEST IDAHO

  
CITY           SKY/WX    TMP DP  RH WIND       PRES   REMARKS
BOISE          PTSUNNY   53  40  61 W23       29.96S                  
CALDWELL       CLOUDY    50  39  66 W25G32    30.01R                  
MOUNTAIN HOME  MOSUNNY   53  43  71 NW33G40   29.94R                  
$$

IDZ016-017-211700-
SOUTHCENTRAL IDAHO

  
CITY           SKY/WX    TMP DP  RH WIND       PRES   REMARKS
BURLEY         CLOUDY    44  38  79 W14G20    29.94R                  
JEROME         CLOUDY    46  40  79 SW18      29.93S                  
TWIN FALLS     CLOUDY    46  39  76 W26G35    29.95R                  
$$

IDZ019>023-211700-
SOUTHEAST IDAHO

  
CITY           SKY/WX    TMP DP  RH WIND       PRES   REMARKS
IDAHO FALLS    CLOUDY    49  42  77 SW10      29.91R                  
POCATELLO      LGT RAIN  43  41  93 SW17      29.94R                  
REXBURG        CLOUDY    50  42  74 S5        29.90R                  
$$

IDZ006-010-011-018-031-032-211700-
CENTRAL IDAHO MOUNTAINS

  
CITY           SKY/WX    TMP DP  RH WIND       PRES   REMARKS
MCCALL         CLOUDY    43  32  65 N16       30.02R                  
HAILEY         CLOUDY    45  39  81 CALM      29.93R                  
STANLEY          N/A     40  34  79 NW3       29.99R                  
SALMON         LGT RAIN  48  38  68 VRB6      30.03R                  
CHALLIS        CLOUDY    48  38  68 N7        29.98R                  
$$

IDZ002-004-006-007-026-211700-
NORTHERN IDAHO

  
CITY           SKY/WX    TMP DP  RH WIND       PRES   REMARKS
LEWISTON       SUNNY     53  42  66 CALM      30.14R                  
LOWELL           N/A     50  49  96 CALM      30.12R                  
COEUR D'ALENE  SUNNY     47  38  71 NE10      30.15R                  
MULLAN PASS    SUNNY     38  32  79 E3        30.11R                  
$$